User: anonymous   Login
Location: Unspecified
(0.0000°N, 0.0000°E)
Time: 00:47:21
(UTC+00:00)
Language:

STARLINK-34074 - Orbit

View from above orbital plane
View from above orbital plane
View from above satellite
View from above satellite

Ground track
Ground track

The orbit is defined by the following mean orbital elements,

1 64099U          26145.40235682 +.00000000 +00000-0 +49257-3 0 00009
2 64099  53.1621  30.7192 0001278  84.2374 275.8772 15.30212895    00
Epoch (UTC): 25 May 2026 09:39:23
Eccentricity: 0.0001278
inclination: 53.1621°
perigee height: 474 km
apogee height: 476 km
right ascension of ascending node: 30.7192°
argument of perigee: 84.2374°
revolutions per day: 15.30212895
mean anomaly at epoch: 275.8772°

The dashed part of the orbit path shows where the satellite is in the earth's shadow,  

DLR